Location: Unspecified
(49.2170°N, 0.0000°E)
Time: 23:08:42
(UTC+00:00)

Transit 2A - Pass Details

Date: 21 June 2019
Orbit: 594 x 964 km, 66.7° (Epoch: 20 July)

Event Time Altitude Azimuth Distance (km) Brightness Sun altitude
Rises 02:42:34 0° 256° (WSW) 3,647 - -9.0°
Exits shadow 02:43:04 - 258° (WSW) 3,484 8.9 -9.0°
Reaches altitude 10° 02:45:32 10° 268° (W) 2,700 8.5 -8.7°
Maximum altitude 02:50:58 29° 326° (NW) 1,674 8.0 -8.2°
Drops below altitude 10° 02:56:13 10° 25° (NNE) 2,603 10.3 -7.6°
Sets 02:59:02 0° 37° (NE) 3,496 12.0 -7.3°
